2021-101B (49391 NORAD) Tracking and Keplerian Element Data

This shows tracking and keplerian element data for the satellite.

Feedback or suggestion? Click here.




ElementValue
Catalog49391
Name2021-101B
Epoch Orbit1081
Epoch Day16.10244523
Epoch Year2022
RAAN339.5446
Inclination34.9986
Eccentricity0.0002157
Argument of Perigee261.6742
Mean Anonmoly154.163
Mean Motion15.2303806
Decay Rate5.059E-05
L11 49391U 21101B 22016.10244523 .00005059 00000+0 21115-3 0 9994
L22 49391 34.9986 339.5446 0002157 261.6742 154.1630 15.23038060 10812

Live tracking and technical data element details for 2021-101B (NORAD 49391). 2021-101B can be tracked NOW for your location showing map with azimuth and elevation plus other details from your city location.

Track the satellite on the map from your city or location and see movement details for azimuth, elevation, latitude, longitude, range, height, and movement on the map or in text.







IsCatalogInMostPopularTable: catalog: 49391, numindb: 7
Update: records affected: 1



GetName: 49391 2021-101B

Hit Count: updated at: Thu, 20 Jan 2022 17:48:31 GMT